Oroville, CA

6:43 AM PDT on August 16, 2017 (GMT -0700)
Oroville Municipal

Weather History for KOVE - July, 2013

Change the Weather History Date:

Wednesday, July 10, 2013

  Actual Average Record
Temperature  
Mean Temperature 84 °F -  
Max Temperature 100 °F 94 °F 108 °F (1961)
Min Temperature 68 °F 61 °F 53 °F (1960)
Cooling Degree Days 19    
Growing Degree Days 34 (Base 50)    
Moisture  
Dew Point 47 °F    
Average Humidity 28    
Maximum Humidity 61    
Minimum Humidity 13    
Precipitation  
Precipitation 0.00 in - - ()
Sea Level Pressure  
Sea Level Pressure 29.88 in    
Wind  
Wind Speed 5 mph (SSE)    
Max Wind Speed 15 mph    
Max Gust Speed 20 mph    
Visibility 10 miles    
Events      
Averages and records for this station are not official NWS values.
T = Trace of Precipitation, MM = Missing Value Source: NWS Daily Summary

Daily Weather History Graph

Daily Weather History Graph

Search for Another Location

Airport or City:

Trip Planner

Search our weather history database for the weather conditions in past years. The results will help you decide how hot, cold, wet, or windy it might be!

Date:

Astronomy

Jul. 10, 2013 Rise Set
Actual Time 5:48 AM PDT 8:35 PM PDT
Civil Twilight 5:16 AM PDT 9:06 PM PDT
Nautical Twilight 4:36 AM PDT 9:46 PM PDT
Astronomical Twilight 3:51 AM PDT 10:32 PM PDT
Moon 8:13 AM PDT (7/10) 9:48 PM PDT (7/10)
Length of Visible Light 15h 50m
Length of Day
14h 46m
Waxing Crescent, 6% of the Moon is Illuminated
Jul 10
Waxing Crescent
Jul 15
First Quarter
Jul 22
Full
Jul 29
Last Quarter
Aug 6
New

Hourly Weather History & Observations

Time (PDT) Temp. Heat Index Dew Point Humidity Pressure Visibility Wind Dir Wind Speed Gust Speed Precip Events Conditions
12:53 AM 81.0 °F - 46.9 °F 30% 29.91 in 10.0 mi NE 3.5 mph - N/A   Clear
1:53 AM 79.0 °F - 45.0 °F 30% 29.90 in 10.0 mi East 5.8 mph - N/A   Clear
2:53 AM 75.0 °F - 44.1 °F 33% 29.91 in 10.0 mi Calm Calm - N/A   Clear
3:53 AM 75.9 °F - 45.0 °F 33% 29.90 in 10.0 mi North 4.6 mph - N/A   Clear
4:53 AM 75.9 °F - 43.0 °F 31% 29.89 in 10.0 mi Calm Calm - N/A   Clear
5:53 AM 68.0 °F - 54.0 °F 61% 29.90 in 10.0 mi West 4.6 mph - N/A   Clear
6:53 AM 71.1 °F - 53.1 °F 53% 29.92 in 10.0 mi Calm Calm - N/A   Clear
7:53 AM 73.9 °F - 50.0 °F 43% 29.93 in 10.0 mi SE 6.9 mph - N/A   Clear
8:53 AM 80.1 °F - 48.9 °F 34% 29.93 in 10.0 mi SE 6.9 mph - N/A   Clear
9:53 AM 84.9 °F - 46.0 °F 26% 29.92 in 10.0 mi Variable 4.6 mph - N/A   Clear
10:53 AM 88.0 °F - 48.9 °F 26% 29.91 in 10.0 mi SW 3.5 mph - N/A   Clear
11:53 AM 89.1 °F 87.3 °F 55.9 °F 32% 29.91 in 10.0 mi West 4.6 mph - N/A   Clear
12:53 PM 91.0 °F 88.5 °F 53.1 °F 27% 29.90 in 10.0 mi Variable 3.5 mph - N/A   Clear
1:53 PM 96.1 °F - 50.0 °F 21% 29.88 in 10.0 mi Variable 4.6 mph - N/A   Clear
2:53 PM 99.0 °F - 46.0 °F 16% 29.87 in 10.0 mi North - - N/A   Clear
3:53 PM 100.0 °F - 46.9 °F 16% 29.85 in 10.0 mi SSE 15.0 mph 19.6 mph N/A   Clear
4:53 PM 100.0 °F - 41.0 °F 13% 29.82 in 10.0 mi South 10.4 mph 19.6 mph N/A   Clear
5:53 PM 99.0 °F - 41.0 °F 14% 29.81 in 10.0 mi South 10.4 mph - N/A   Clear
6:53 PM 96.1 °F - 45.0 °F 17% 29.81 in 10.0 mi South 11.5 mph - N/A   Clear
7:53 PM 91.9 °F - 45.0 °F 20% 29.81 in 10.0 mi South 11.5 mph - N/A   Clear
8:53 PM 86.0 °F - 46.9 °F 26% 29.82 in 10.0 mi SSE 10.4 mph - N/A   Clear
9:53 PM 84.0 °F - 44.1 °F 25% 29.84 in 10.0 mi SE 10.4 mph - N/A   Clear
10:53 PM 82.0 °F - 42.1 °F 24% 29.86 in 10.0 mi SE 8.1 mph - N/A   Clear
11:53 PM 79.0 °F - 41.0 °F 26% 29.86 in 10.0 mi SE 8.1 mph - N/A   Clear